Location: Ebendorf
(52.1827°N, 11.5706°E)
Time: 10:10:15
(UTC+00:00)

Cosmos 1656 - Pass Details

Date: 15 May 2021
Orbit: 797 x 851 km, 71.1° (Epoch: 20 June)

Event Time Altitude Azimuth Distance (km) Brightness Sun altitude
Exits shadow 00:20:52 26° 171° (S) 1,552 4.6 -17.3°
Maximum altitude 00:23:38 48° 111° (ESE) 1,059 4.2 -17.2°
Drops below altitude 10° 00:28:56 10° 39° (NE) 2,426 7.2 -16.9°
Sets 00:31:27 0° 34° (NE) 3,371 8.4 -16.8°
